Year,Month,Day,Hour,Minute,Value (Times are PST for temperature in C)
2016,04,20,00,00,16.60
2016,04,20,00,01,16.70
2016,04,20,00,02,16.70
2016,04,20,00,03,16.70
2016,04,20,00,04,16.80
2016,04,20,00,05,16.80
2016,04,20,00,06,16.80
2016,04,20,00,07,16.80
2016,04,20,00,08,16.90
2016,04,20,00,09,16.90
2016,04,20,00,10,16.90
2016,04,20,00,11,16.90
2016,04,20,00,12,16.90
2016,04,20,00,13,16.90
2016,04,20,00,14,16.90
2016,04,20,00,15,16.90
2016,04,20,00,16,17.00
2016,04,20,00,17,17.00
2016,04,20,00,18,17.00
2016,04,20,00,19,17.00
2016,04,20,00,20,17.00
2016,04,20,00,21,17.00
2016,04,20,00,22,17.00
2016,04,20,00,23,17.00
2016,04,20,00,24,17.10
2016,04,20,00,25,17.10
2016,04,20,00,26,17.10
2016,04,20,00,27,17.20
2016,04,20,00,28,17.20
2016,04,20,00,29,17.20
2016,04,20,00,30,17.20
2016,04,20,00,31,17.20
2016,04,20,00,32,17.20
2016,04,20,00,33,17.20
2016,04,20,00,34,17.20
2016,04,20,00,35,17.20
2016,04,20,00,36,17.20
2016,04,20,00,37,17.20
2016,04,20,00,38,17.20
2016,04,20,00,39,17.20
2016,04,20,00,40,17.10
2016,04,20,00,41,17.10
2016,04,20,00,42,17.10
2016,04,20,00,43,17.00
2016,04,20,00,44,17.00
2016,04,20,00,45,17.00
2016,04,20,00,46,17.00
2016,04,20,00,47,16.90
2016,04,20,00,48,16.90
2016,04,20,00,49,16.90
2016,04,20,00,50,16.90
2016,04,20,00,51,16.90
2016,04,20,00,52,16.90
2016,04,20,00,53,16.90
2016,04,20,00,54,16.90
2016,04,20,00,55,16.90
2016,04,20,00,56,16.90
2016,04,20,00,57,16.90
2016,04,20,00,58,16.90
2016,04,20,00,59,16.90
2016,04,20,01,00,17.00
2016,04,20,01,01,17.00
2016,04,20,01,02,17.00
2016,04,20,01,03,17.00
2016,04,20,01,04,17.10
2016,04,20,01,05,17.10
2016,04,20,01,06,17.10
2016,04,20,01,07,17.10
2016,04,20,01,08,17.10
2016,04,20,01,09,17.10
2016,04,20,01,10,17.10
2016,04,20,01,11,17.10
2016,04,20,01,12,17.10
2016,04,20,01,13,17.10
2016,04,20,01,14,17.20
2016,04,20,01,15,17.20
2016,04,20,01,16,17.10
2016,04,20,01,17,17.20
2016,04,20,01,18,17.20
2016,04,20,01,19,17.20
2016,04,20,01,20,17.20
2016,04,20,01,21,17.20
2016,04,20,01,22,17.20
2016,04,20,01,23,17.20
2016,04,20,01,24,17.30
2016,04,20,01,25,17.30
2016,04,20,01,26,17.30
2016,04,20,01,27,17.30
2016,04,20,01,28,17.30
2016,04,20,01,29,17.30
2016,04,20,01,30,17.30
2016,04,20,01,31,17.30
2016,04,20,01,32,17.30
2016,04,20,01,33,17.30
2016,04,20,01,34,17.30
2016,04,20,01,35,17.20
2016,04,20,01,36,17.20
2016,04,20,01,37,17.20
2016,04,20,01,38,17.10
2016,04,20,01,39,17.10
2016,04,20,01,40,17.10
2016,04,20,01,41,17.10
2016,04,20,01,42,17.10
2016,04,20,01,43,17.00
2016,04,20,01,44,17.00
2016,04,20,01,45,16.90
2016,04,20,01,46,16.90
2016,04,20,01,47,16.80
2016,04,20,01,48,16.80
2016,04,20,01,49,16.80
2016,04,20,01,50,16.80
2016,04,20,01,51,16.80
2016,04,20,01,52,16.80
2016,04,20,01,53,16.70
2016,04,20,01,54,16.70
2016,04,20,01,55,16.70
2016,04,20,01,56,16.70
2016,04,20,01,57,16.70
2016,04,20,01,58,16.70
2016,04,20,01,59,16.70
2016,04,20,02,00,16.70
2016,04,20,02,01,16.70
2016,04,20,02,02,16.60
2016,04,20,02,03,16.60
2016,04,20,02,04,16.60
2016,04,20,02,05,16.60
2016,04,20,02,06,16.60
2016,04,20,02,07,16.60
2016,04,20,02,08,16.60
2016,04,20,02,09,16.60
2016,04,20,02,10,16.60
2016,04,20,02,11,16.50
2016,04,20,02,12,16.50
2016,04,20,02,13,16.50
2016,04,20,02,14,16.50
2016,04,20,02,15,16.50
2016,04,20,02,16,16.40
2016,04,20,02,17,16.40
2016,04,20,02,18,16.40
2016,04,20,02,19,16.40
2016,04,20,02,20,16.40
2016,04,20,02,21,16.50
2016,04,20,02,22,16.50
2016,04,20,02,23,16.50
2016,04,20,02,24,16.50
2016,04,20,02,25,16.50
2016,04,20,02,26,16.50
2016,04,20,02,27,16.50
2016,04,20,02,28,16.50
2016,04,20,02,29,16.50
2016,04,20,02,30,16.50
2016,04,20,02,31,16.50
2016,04,20,02,32,16.50
2016,04,20,02,33,16.40
2016,04,20,02,34,16.40
2016,04,20,02,35,16.40
2016,04,20,02,36,16.40
2016,04,20,02,37,16.40
2016,04,20,02,38,16.40
2016,04,20,02,39,16.30
2016,04,20,02,40,16.30
2016,04,20,02,41,16.30
2016,04,20,02,42,16.30
2016,04,20,02,43,16.30
2016,04,20,02,44,16.30
2016,04,20,02,45,16.20
2016,04,20,02,46,16.20
2016,04,20,02,47,16.20
2016,04,20,02,48,16.20
2016,04,20,02,49,16.20
2016,04,20,02,50,16.10
2016,04,20,02,51,16.10
2016,04,20,02,52,16.10
2016,04,20,02,53,16.10
2016,04,20,02,54,16.10
2016,04,20,02,55,16.10
2016,04,20,02,56,16.10
2016,04,20,02,57,16.00
2016,04,20,02,58,16.00
2016,04,20,02,59,16.00
2016,04,20,03,00,16.00
2016,04,20,03,01,16.00
2016,04,20,03,02,16.00
2016,04,20,03,03,15.90
2016,04,20,03,04,15.90
2016,04,20,03,05,15.90
2016,04,20,03,06,15.90
2016,04,20,03,07,15.90
2016,04,20,03,08,15.90
2016,04,20,03,09,15.90
2016,04,20,03,10,15.90
2016,04,20,03,11,15.90
2016,04,20,03,12,15.90
2016,04,20,03,13,15.90
2016,04,20,03,14,15.90
2016,04,20,03,15,15.90
2016,04,20,03,16,15.90
2016,04,20,03,17,15.90
2016,04,20,03,18,15.90
2016,04,20,03,19,15.90
2016,04,20,03,20,15.90
2016,04,20,03,21,15.90
2016,04,20,03,22,15.90
2016,04,20,03,23,15.90
2016,04,20,03,24,15.90
2016,04,20,03,25,15.90
2016,04,20,03,26,15.90
2016,04,20,03,27,15.90
2016,04,20,03,28,15.80
2016,04,20,03,29,15.80
2016,04,20,03,30,15.90
2016,04,20,03,31,15.90
2016,04,20,03,32,15.90
2016,04,20,03,33,15.90
2016,04,20,03,34,15.90
2016,04,20,03,35,15.90
2016,04,20,03,36,15.90
2016,04,20,03,37,15.90
2016,04,20,03,38,15.90
2016,04,20,03,39,16.00
2016,04,20,03,40,16.00
2016,04,20,03,41,16.00
2016,04,20,03,42,16.00
2016,04,20,03,43,16.00
2016,04,20,03,44,16.00
2016,04,20,03,45,16.00
2016,04,20,03,46,16.00
2016,04,20,03,47,16.10
2016,04,20,03,48,16.00
2016,04,20,03,49,16.10
2016,04,20,03,50,16.00
2016,04,20,03,51,16.10
2016,04,20,03,52,16.00
2016,04,20,03,53,16.00
2016,04,20,03,54,16.00
2016,04,20,03,55,15.90
2016,04,20,03,56,15.90
2016,04,20,03,57,15.90
2016,04,20,03,58,15.90
2016,04,20,03,59,15.90
2016,04,20,04,00,15.80
2016,04,20,04,01,15.80
2016,04,20,04,02,15.80
2016,04,20,04,03,15.80
2016,04,20,04,04,15.80
2016,04,20,04,05,15.80
2016,04,20,04,06,15.80
2016,04,20,04,07,15.80
2016,04,20,04,08,15.80
2016,04,20,04,09,15.80
2016,04,20,04,10,15.80
2016,04,20,04,11,15.80
2016,04,20,04,12,15.80
2016,04,20,04,13,15.80
2016,04,20,04,14,15.80
2016,04,20,04,15,15.80
2016,04,20,04,16,15.80
2016,04,20,04,17,15.80
2016,04,20,04,18,15.80
2016,04,20,04,19,15.80
2016,04,20,04,20,15.80
2016,04,20,04,21,15.80
2016,04,20,04,22,15.80
2016,04,20,04,23,15.80
2016,04,20,04,24,15.80
2016,04,20,04,25,15.80
2016,04,20,04,26,15.70
2016,04,20,04,27,15.70
2016,04,20,04,28,15.70
2016,04,20,04,29,15.70
2016,04,20,04,30,15.70
2016,04,20,04,31,15.70
2016,04,20,04,32,15.60
2016,04,20,04,33,15.60
2016,04,20,04,34,15.60
2016,04,20,04,35,15.60
2016,04,20,04,36,15.60
2016,04,20,04,37,15.70
2016,04,20,04,38,15.70
2016,04,20,04,39,15.70
2016,04,20,04,40,15.80
2016,04,20,04,41,15.80
2016,04,20,04,42,15.80
2016,04,20,04,43,15.80
2016,04,20,04,44,15.80
2016,04,20,04,45,15.80
2016,04,20,04,46,15.80
2016,04,20,04,47,15.70
2016,04,20,04,48,15.70
2016,04,20,04,49,15.70
2016,04,20,04,50,15.70
2016,04,20,04,51,15.70
2016,04,20,04,52,15.70
2016,04,20,04,53,15.70
2016,04,20,04,54,15.70
2016,04,20,04,55,15.70
2016,04,20,04,56,15.70
2016,04,20,04,57,15.70
2016,04,20,04,58,15.70
2016,04,20,04,59,15.70
2016,04,20,05,00,15.70
2016,04,20,05,01,15.70
2016,04,20,05,02,15.70
2016,04,20,05,03,15.70
2016,04,20,05,04,15.70
2016,04,20,05,05,15.70
2016,04,20,05,06,15.70
2016,04,20,05,07,15.70
2016,04,20,05,08,15.70
2016,04,20,05,09,15.70
2016,04,20,05,10,15.70
2016,04,20,05,11,15.70
2016,04,20,05,12,15.70
2016,04,20,05,13,15.70
2016,04,20,05,14,15.70
2016,04,20,05,15,15.60
2016,04,20,05,16,15.60
2016,04,20,05,17,15.60
2016,04,20,05,18,15.60
2016,04,20,05,19,15.50
2016,04,20,05,20,15.50
2016,04,20,05,21,15.50
2016,04,20,05,22,15.50
2016,04,20,05,23,15.50
2016,04,20,05,24,15.40
2016,04,20,05,25,15.40
2016,04,20,05,26,15.40
2016,04,20,05,27,15.40
2016,04,20,05,28,15.40
2016,04,20,05,29,15.30
2016,04,20,05,30,15.30
2016,04,20,05,31,15.30
2016,04,20,05,32,15.30
2016,04,20,05,33,15.20
2016,04,20,05,34,15.20
2016,04,20,05,35,15.20
2016,04,20,05,36,15.20
2016,04,20,05,37,15.20
2016,04,20,05,38,15.20
2016,04,20,05,39,15.10
2016,04,20,05,40,15.10
2016,04,20,05,41,15.10
2016,04,20,05,42,15.10
2016,04,20,05,43,15.10
2016,04,20,05,44,15.10
2016,04,20,05,45,15.10
2016,04,20,05,46,15.10
2016,04,20,05,47,15.10
2016,04,20,05,48,15.10
2016,04,20,05,49,15.10
2016,04,20,05,50,15.00
2016,04,20,05,51,15.00
2016,04,20,05,52,15.00
2016,04,20,05,53,15.00
2016,04,20,05,54,15.00
2016,04,20,05,55,15.00
2016,04,20,05,56,15.00
2016,04,20,05,57,15.00
2016,04,20,05,58,15.00
2016,04,20,05,59,15.00
2016,04,20,06,00,15.00
2016,04,20,06,01,15.00
2016,04,20,06,02,15.00
2016,04,20,06,03,15.00
2016,04,20,06,04,15.00
2016,04,20,06,05,15.00
2016,04,20,06,06,15.00
2016,04,20,06,07,15.00
2016,04,20,06,08,14.90
2016,04,20,06,09,14.90
2016,04,20,06,10,14.80
2016,04,20,06,11,14.80
2016,04,20,06,12,14.70
2016,04,20,06,13,14.70
2016,04,20,06,14,14.70
2016,04,20,06,15,14.60
2016,04,20,06,16,14.60
2016,04,20,06,17,14.50
2016,04,20,06,18,14.50
2016,04,20,06,19,14.40
2016,04,20,06,20,14.40
2016,04,20,06,21,14.30
2016,04,20,06,22,14.30
2016,04,20,06,23,14.20
2016,04,20,06,24,14.20
2016,04,20,06,25,14.10
2016,04,20,06,26,14.10
2016,04,20,06,27,14.00
2016,04,20,06,28,14.00
2016,04,20,06,29,13.90
2016,04,20,06,30,13.90
2016,04,20,06,31,13.80
2016,04,20,06,32,13.80
2016,04,20,06,33,13.70
2016,04,20,06,34,13.70
2016,04,20,06,35,13.60
2016,04,20,06,36,13.60
2016,04,20,06,37,13.60
2016,04,20,06,38,13.50
2016,04,20,06,39,13.50
2016,04,20,06,40,13.50
2016,04,20,06,41,13.40
2016,04,20,06,42,13.40
2016,04,20,06,43,13.40
2016,04,20,06,44,13.40
2016,04,20,06,45,13.30
2016,04,20,06,46,13.30
2016,04,20,06,47,13.30
2016,04,20,06,48,13.30
2016,04,20,06,49,13.20
2016,04,20,06,50,13.20
2016,04,20,06,51,13.20
2016,04,20,06,52,13.20
2016,04,20,06,53,13.20
2016,04,20,06,54,13.20
2016,04,20,06,55,13.20
2016,04,20,06,56,13.10
2016,04,20,06,57,13.10
2016,04,20,06,58,13.10
2016,04,20,06,59,13.10
2016,04,20,07,00,13.10
2016,04,20,07,01,13.10
2016,04,20,07,02,13.10
2016,04,20,07,03,13.10
2016,04,20,07,04,13.10
2016,04,20,07,05,13.10
2016,04,20,07,06,13.10
2016,04,20,07,07,13.10
2016,04,20,07,08,13.10
2016,04,20,07,09,13.10
2016,04,20,07,10,13.20
2016,04,20,07,11,13.20
2016,04,20,07,12,13.20
2016,04,20,07,13,13.30
2016,04,20,07,14,13.30
2016,04,20,07,15,13.30
2016,04,20,07,16,13.40
2016,04,20,07,17,13.40
2016,04,20,07,18,13.50
2016,04,20,07,19,13.50
2016,04,20,07,20,13.60
2016,04,20,07,21,13.70
2016,04,20,07,22,13.80
2016,04,20,07,23,13.80
2016,04,20,07,24,13.90
2016,04,20,07,25,13.90
2016,04,20,07,26,14.00
2016,04,20,07,27,14.10
2016,04,20,07,28,14.20
2016,04,20,07,29,14.30
2016,04,20,07,30,14.40
2016,04,20,07,31,14.40
2016,04,20,07,32,14.50
2016,04,20,07,33,14.60
2016,04,20,07,34,14.60
2016,04,20,07,35,14.70
2016,04,20,07,36,14.80
2016,04,20,07,37,14.80
2016,04,20,07,38,14.90
2016,04,20,07,39,15.00
2016,04,20,07,40,15.00
2016,04,20,07,41,15.00
2016,04,20,07,42,15.00
2016,04,20,07,43,15.00
2016,04,20,07,44,15.00
2016,04,20,07,45,15.00
2016,04,20,07,46,15.00
2016,04,20,07,47,15.00
2016,04,20,07,48,15.00
2016,04,20,07,49,15.10
2016,04,20,07,50,15.10
2016,04,20,07,51,15.20
2016,04,20,07,52,15.20
2016,04,20,07,53,15.30
2016,04,20,07,54,15.30
2016,04,20,07,55,15.30
2016,04,20,07,56,15.30
2016,04,20,07,57,15.30
2016,04,20,07,58,15.30
2016,04,20,07,59,15.40
2016,04,20,08,00,15.40
2016,04,20,08,01,15.40
2016,04,20,08,02,15.50
2016,04,20,08,03,15.50
2016,04,20,08,04,15.60
2016,04,20,08,05,15.60
2016,04,20,08,06,15.70
2016,04,20,08,07,15.70
2016,04,20,08,08,15.70
2016,04,20,08,09,15.70
2016,04,20,08,10,15.80
2016,04,20,08,11,15.80
2016,04,20,08,12,15.80
2016,04,20,08,13,15.90
2016,04,20,08,14,15.90
2016,04,20,08,15,16.00
2016,04,20,08,16,16.00
2016,04,20,08,17,16.10
2016,04,20,08,18,16.20
2016,04,20,08,19,16.20
2016,04,20,08,20,16.20
2016,04,20,08,21,16.30
2016,04,20,08,22,16.30
2016,04,20,08,23,16.40
2016,04,20,08,24,16.40
2016,04,20,08,25,16.40
2016,04,20,08,26,16.50
2016,04,20,08,27,16.50
2016,04,20,08,28,16.60
2016,04,20,08,29,16.60
2016,04,20,08,30,16.70
2016,04,20,08,31,16.70
2016,04,20,08,32,16.80
2016,04,20,08,33,16.80
2016,04,20,08,34,16.80
2016,04,20,08,35,16.80
2016,04,20,08,36,16.90
2016,04,20,08,37,16.90
2016,04,20,08,38,16.90
2016,04,20,08,39,16.90
2016,04,20,08,40,16.90
2016,04,20,08,41,16.90
2016,04,20,08,42,17.00
2016,04,20,08,43,17.00
2016,04,20,08,44,17.10
2016,04,20,08,45,17.10
2016,04,20,08,46,17.20
2016,04,20,08,47,17.20
2016,04,20,08,48,17.30
2016,04,20,08,49,17.30
2016,04,20,08,50,17.30
2016,04,20,08,51,17.30
2016,04,20,08,52,17.40
2016,04,20,08,53,17.40
2016,04,20,08,54,17.40
2016,04,20,08,55,17.50
2016,04,20,08,56,17.50
2016,04,20,08,57,17.60
2016,04,20,08,58,17.60
2016,04,20,08,59,17.60
2016,04,20,09,00,17.60
2016,04,20,09,01,17.70
2016,04,20,09,02,17.70
2016,04,20,09,03,17.70
2016,04,20,09,04,17.80
2016,04,20,09,05,17.80
2016,04,20,09,06,17.80
2016,04,20,09,07,17.80
2016,04,20,09,08,17.90
2016,04,20,09,09,17.80
2016,04,20,09,10,17.90
2016,04,20,09,11,17.90
2016,04,20,09,12,18.00
2016,04,20,09,13,18.00
2016,04,20,09,14,18.00
2016,04,20,09,15,18.10
2016,04,20,09,16,18.10
2016,04,20,09,17,18.10
2016,04,20,09,18,18.00
2016,04,20,09,19,18.00
2016,04,20,09,20,18.00
2016,04,20,09,21,17.90
2016,04,20,09,22,17.80
2016,04,20,09,23,17.80
2016,04,20,09,24,17.80
2016,04,20,09,25,17.80
2016,04,20,09,26,17.80
2016,04,20,09,27,17.80
2016,04,20,09,28,17.80
2016,04,20,09,29,17.80
2016,04,20,09,30,17.80
2016,04,20,09,31,17.70
2016,04,20,09,32,17.70
2016,04,20,09,33,17.70
2016,04,20,09,34,17.70
2016,04,20,09,35,17.70
2016,04,20,09,36,17.70
2016,04,20,09,37,17.70
2016,04,20,09,38,17.70
2016,04,20,09,39,17.80
2016,04,20,09,40,17.80
2016,04,20,09,41,17.80
2016,04,20,09,42,17.90
2016,04,20,09,43,17.90
2016,04,20,09,44,18.00
2016,04,20,09,45,18.00
2016,04,20,09,46,18.10
2016,04,20,09,47,18.10
2016,04,20,09,48,18.10
2016,04,20,09,49,18.20
2016,04,20,09,50,18.20
2016,04,20,09,51,18.20
2016,04,20,09,52,18.20
2016,04,20,09,53,18.20
2016,04,20,09,54,18.20
2016,04,20,09,55,18.30
2016,04,20,09,56,18.30
2016,04,20,09,57,18.30
2016,04,20,09,58,18.40
2016,04,20,09,59,18.40
2016,04,20,10,00,18.50
2016,04,20,10,01,18.60
2016,04,20,10,02,18.60
2016,04,20,10,03,18.70
2016,04,20,10,04,18.70
2016,04,20,10,05,18.70
2016,04,20,10,06,18.70
2016,04,20,10,07,18.80
2016,04,20,10,08,18.80
2016,04,20,10,09,18.80
2016,04,20,10,10,18.80
2016,04,20,10,11,18.80
2016,04,20,10,12,18.80
2016,04,20,10,13,18.80
2016,04,20,10,14,18.80
2016,04,20,10,15,18.80
2016,04,20,10,16,18.80
2016,04,20,10,17,18.90
2016,04,20,10,18,18.90
2016,04,20,10,19,18.90
2016,04,20,10,20,18.90
2016,04,20,10,21,18.90
2016,04,20,10,22,19.00
2016,04,20,10,23,19.00
2016,04,20,10,24,19.10
2016,04,20,10,25,19.00
2016,04,20,10,26,19.00
2016,04,20,10,27,18.90
2016,04,20,10,28,18.90
2016,04,20,10,29,18.80
2016,04,20,10,30,18.80
2016,04,20,10,31,18.80
2016,04,20,10,32,18.80
2016,04,20,10,33,18.80
2016,04,20,10,34,18.80
2016,04,20,10,35,18.80
2016,04,20,10,36,18.90
2016,04,20,10,37,18.90
2016,04,20,10,38,19.00
2016,04,20,10,39,19.00
2016,04,20,10,40,19.10
2016,04,20,10,41,19.20
2016,04,20,10,42,19.20
2016,04,20,10,43,19.30
2016,04,20,10,44,19.30
2016,04,20,10,45,19.40
2016,04,20,10,46,19.40
2016,04,20,10,47,19.50
2016,04,20,10,48,19.40
2016,04,20,10,49,19.40
2016,04,20,10,50,19.50
2016,04,20,10,51,19.50
2016,04,20,10,52,19.50
2016,04,20,10,53,19.60
2016,04,20,10,54,19.60
2016,04,20,10,55,19.60
2016,04,20,10,56,19.60
2016,04,20,10,57,19.60
2016,04,20,10,58,19.50
2016,04,20,10,59,19.50
2016,04,20,11,00,19.50
2016,04,20,11,01,19.60
2016,04,20,11,02,19.60
2016,04,20,11,03,19.60
2016,04,20,11,04,19.60
2016,04,20,11,05,19.60
2016,04,20,11,06,19.60
2016,04,20,11,07,19.60
2016,04,20,11,08,19.60
2016,04,20,11,09,19.70
2016,04,20,11,10,19.70
2016,04,20,11,11,19.70
2016,04,20,11,12,19.60
2016,04,20,11,13,19.60
2016,04,20,11,14,19.60
2016,04,20,11,15,19.60
2016,04,20,11,16,19.70
2016,04,20,11,17,19.70
2016,04,20,11,18,19.70
2016,04,20,11,19,19.80
2016,04,20,11,20,19.80
2016,04,20,11,21,19.90
2016,04,20,11,22,19.90
2016,04,20,11,23,20.00
2016,04,20,11,24,20.10
2016,04,20,11,25,20.10
2016,04,20,11,26,20.10
2016,04,20,11,27,20.10
2016,04,20,11,28,20.00
2016,04,20,11,29,19.90
2016,04,20,11,30,20.00
2016,04,20,11,31,20.00
2016,04,20,11,32,20.00
2016,04,20,11,33,20.00
2016,04,20,11,34,20.00
2016,04,20,11,35,20.10
2016,04,20,11,36,20.10
2016,04,20,11,37,20.20
2016,04,20,11,38,20.30
2016,04,20,11,39,20.40
2016,04,20,11,40,20.50
2016,04,20,11,41,20.50
2016,04,20,11,42,20.60
2016,04,20,11,43,20.60
2016,04,20,11,44,20.70
2016,04,20,11,45,20.70
2016,04,20,11,46,20.70
2016,04,20,11,47,20.70
2016,04,20,11,48,20.70
2016,04,20,11,49,20.70
2016,04,20,11,50,20.70
2016,04,20,11,51,20.60
2016,04,20,11,52,20.70
2016,04,20,11,53,20.70
2016,04,20,11,54,20.80
2016,04,20,11,55,20.80
2016,04,20,11,56,20.80
2016,04,20,11,57,20.80
2016,04,20,11,58,20.90
2016,04,20,11,59,20.90
2016,04,20,12,00,21.00
2016,04,20,12,01,21.00
2016,04,20,12,02,21.10
2016,04,20,12,03,21.10
2016,04,20,12,04,21.20
2016,04,20,12,05,21.20
2016,04,20,12,06,21.20
2016,04,20,12,07,21.20
2016,04,20,12,08,21.20
2016,04,20,12,09,21.20
2016,04,20,12,10,21.20
2016,04,20,12,11,21.30
2016,04,20,12,12,21.30
2016,04,20,12,13,21.40
2016,04,20,12,14,21.50
2016,04,20,12,15,21.50
2016,04,20,12,16,21.50
2016,04,20,12,17,21.50
2016,04,20,12,18,21.50
2016,04,20,12,19,21.50
2016,04,20,12,20,21.40
2016,04,20,12,21,21.40
2016,04,20,12,22,21.40
2016,04,20,12,23,21.40
2016,04,20,12,24,21.40
2016,04,20,12,25,21.30
2016,04,20,12,26,21.30
2016,04,20,12,27,21.40
2016,04,20,12,28,21.40
2016,04,20,12,29,21.50
2016,04,20,12,30,21.60
2016,04,20,12,31,21.70
2016,04,20,12,32,21.80
2016,04,20,12,33,21.80
2016,04,20,12,34,21.80
2016,04,20,12,35,21.80
2016,04,20,12,36,21.80
2016,04,20,12,37,21.70
2016,04,20,12,38,21.60
2016,04,20,12,39,21.50
2016,04,20,12,40,21.40
2016,04,20,12,41,21.20
2016,04,20,12,42,21.00
2016,04,20,12,43,20.90
2016,04,20,12,44,20.80
2016,04,20,12,45,20.80
2016,04,20,12,46,20.80
2016,04,20,12,47,20.80
2016,04,20,12,48,20.80
2016,04,20,12,49,20.70
2016,04,20,12,50,20.60
2016,04,20,12,51,20.50
2016,04,20,12,52,20.40
2016,04,20,12,53,20.20
2016,04,20,12,54,20.10
2016,04,20,12,55,19.90
2016,04,20,12,56,19.90
2016,04,20,12,57,19.80
2016,04,20,12,58,19.80
2016,04,20,12,59,19.80
2016,04,20,13,00,19.80
2016,04,20,13,01,19.80
2016,04,20,13,02,19.80
2016,04,20,13,03,19.80
2016,04,20,13,04,19.80
2016,04,20,13,05,19.80
2016,04,20,13,06,19.80
2016,04,20,13,07,19.70
2016,04,20,13,08,19.80
2016,04,20,13,09,19.80
2016,04,20,13,10,19.80
2016,04,20,13,11,19.80
2016,04,20,13,12,19.80
2016,04,20,13,13,19.80
2016,04,20,13,14,19.80
2016,04,20,13,15,19.80
2016,04,20,13,16,19.80
2016,04,20,13,17,19.70
2016,04,20,13,18,19.70
2016,04,20,13,19,19.70
2016,04,20,13,20,19.70
2016,04,20,13,21,19.70
2016,04,20,13,22,19.70
2016,04,20,13,23,19.70
2016,04,20,13,24,19.70
2016,04,20,13,25,19.70
2016,04,20,13,26,19.80
2016,04,20,13,27,19.80
2016,04,20,13,28,19.80
2016,04,20,13,29,19.90
2016,04,20,13,30,19.90
2016,04,20,13,31,19.90
2016,04,20,13,32,19.90
2016,04,20,13,33,20.00
2016,04,20,13,34,20.00
2016,04,20,13,35,20.00
2016,04,20,13,36,20.00
2016,04,20,13,37,20.00
2016,04,20,13,38,20.00
2016,04,20,13,39,19.90
2016,04,20,13,40,19.90
2016,04,20,13,41,19.90
2016,04,20,13,42,19.90
2016,04,20,13,43,19.90
2016,04,20,13,44,19.90
2016,04,20,13,45,19.90
2016,04,20,13,46,19.90
2016,04,20,13,47,19.90
2016,04,20,13,48,19.90
2016,04,20,13,49,19.90
2016,04,20,13,50,19.90
2016,04,20,13,51,19.90
2016,04,20,13,52,19.90
2016,04,20,13,53,20.00
2016,04,20,13,54,20.00
2016,04,20,13,55,20.00
2016,04,20,13,56,20.00
2016,04,20,13,57,20.00
2016,04,20,13,58,20.00
2016,04,20,13,59,20.00
2016,04,20,14,00,20.00
2016,04,20,14,01,20.00
2016,04,20,14,02,20.00
2016,04,20,14,03,20.00
2016,04,20,14,04,20.00
2016,04,20,14,05,20.00
2016,04,20,14,06,20.00
2016,04,20,14,07,20.00
2016,04,20,14,08,20.00
2016,04,20,14,09,20.00
2016,04,20,14,10,20.10
2016,04,20,14,11,20.10
2016,04,20,14,12,20.20
2016,04,20,14,13,20.20
2016,04,20,14,14,20.20
2016,04,20,14,15,20.30
2016,04,20,14,16,20.30
2016,04,20,14,17,20.30
2016,04,20,14,18,20.40
2016,04,20,14,19,20.40
2016,04,20,14,20,20.40
2016,04,20,14,21,20.40
2016,04,20,14,22,20.30
2016,04,20,14,23,20.30
2016,04,20,14,24,20.40
2016,04,20,14,25,20.40
2016,04,20,14,26,20.40
2016,04,20,14,27,20.40
2016,04,20,14,28,20.40
2016,04,20,14,29,20.40
2016,04,20,14,30,20.40
2016,04,20,14,31,20.40
2016,04,20,14,32,20.40
2016,04,20,14,33,20.30
2016,04,20,14,34,20.30
2016,04,20,14,35,20.40
2016,04,20,14,36,20.40
2016,04,20,14,37,20.40
2016,04,20,14,38,20.40
2016,04,20,14,39,20.40
2016,04,20,14,40,20.30
2016,04,20,14,41,20.30
2016,04,20,14,42,20.20
2016,04,20,14,43,20.00
2016,04,20,14,44,19.90
2016,04,20,14,45,19.90
2016,04,20,14,46,19.90
2016,04,20,14,47,19.90
2016,04,20,14,48,19.90
2016,04,20,14,49,19.90
2016,04,20,14,50,19.90
2016,04,20,14,51,19.90
2016,04,20,14,52,19.90
2016,04,20,14,53,20.00
2016,04,20,14,54,20.00
2016,04,20,14,55,20.10
2016,04,20,14,56,20.10
2016,04,20,14,57,20.20
2016,04,20,14,58,20.30
2016,04,20,14,59,20.30
2016,04,20,15,00,20.40
2016,04,20,15,01,20.50
2016,04,20,15,02,20.60
2016,04,20,15,03,20.60
2016,04,20,15,04,20.70
2016,04,20,15,05,20.80
2016,04,20,15,06,20.90
2016,04,20,15,07,21.00
2016,04,20,15,08,21.10
2016,04,20,15,09,21.20
2016,04,20,15,10,21.30
2016,04,20,15,11,21.30
2016,04,20,15,12,21.20
2016,04,20,15,13,21.20
2016,04,20,15,14,21.10
2016,04,20,15,15,21.10
2016,04,20,15,16,21.10
2016,04,20,15,17,21.10
2016,04,20,15,18,21.10
2016,04,20,15,19,21.10
2016,04,20,15,20,21.10
2016,04,20,15,21,21.00
2016,04,20,15,22,21.00
2016,04,20,15,23,20.90
2016,04,20,15,24,20.90
2016,04,20,15,25,20.90
2016,04,20,15,26,20.80
2016,04,20,15,27,20.80
2016,04,20,15,28,20.80
2016,04,20,15,29,20.80
2016,04,20,15,30,20.80
2016,04,20,15,31,20.70
2016,04,20,15,32,20.70
2016,04,20,15,33,20.70
2016,04,20,15,34,20.70
2016,04,20,15,35,20.70
2016,04,20,15,36,20.60
2016,04,20,15,37,20.60
2016,04,20,15,38,20.60
2016,04,20,15,39,20.70
2016,04,20,15,40,20.70
2016,04,20,15,41,20.70
2016,04,20,15,42,20.60
2016,04,20,15,43,20.60
2016,04,20,15,44,20.60
2016,04,20,15,45,20.60
2016,04,20,15,46,20.50
2016,04,20,15,47,20.50
2016,04,20,15,48,20.50
2016,04,20,15,49,20.50
2016,04,20,15,50,20.50
2016,04,20,15,51,20.50
2016,04,20,15,52,20.60
2016,04,20,15,53,20.60
2016,04,20,15,54,20.60
2016,04,20,15,55,20.60
2016,04,20,15,56,20.60
2016,04,20,15,57,20.60
2016,04,20,15,58,20.60
2016,04,20,15,59,20.60
2016,04,20,16,00,20.50
2016,04,20,16,01,20.50
2016,04,20,16,02,20.50
2016,04,20,16,03,20.50
2016,04,20,16,04,20.50
2016,04,20,16,05,20.50
2016,04,20,16,06,20.50
2016,04,20,16,07,20.50
2016,04,20,16,08,20.50
2016,04,20,16,09,20.40
2016,04,20,16,10,20.50
2016,04,20,16,11,20.50
2016,04,20,16,12,20.50
2016,04,20,16,13,20.50
2016,04,20,16,14,20.50
2016,04,20,16,15,20.50
2016,04,20,16,16,20.50
2016,04,20,16,17,20.40
2016,04,20,16,18,20.40
2016,04,20,16,19,20.50
2016,04,20,16,20,20.50
2016,04,20,16,21,20.60
2016,04,20,16,22,20.60
2016,04,20,16,23,20.60
2016,04,20,16,24,20.60
2016,04,20,16,25,20.70
2016,04,20,16,26,20.70
2016,04,20,16,27,20.70
2016,04,20,16,28,20.80
2016,04,20,16,29,20.80
2016,04,20,16,30,20.80
2016,04,20,16,31,20.80
2016,04,20,16,32,20.80
2016,04,20,16,33,20.80
2016,04,20,16,34,20.80
2016,04,20,16,35,20.80
2016,04,20,16,36,20.80
2016,04,20,16,37,20.80
2016,04,20,16,38,20.80
2016,04,20,16,39,20.90
2016,04,20,16,40,20.90
2016,04,20,16,41,20.80
2016,04,20,16,42,20.80
2016,04,20,16,43,20.80
2016,04,20,16,44,20.70
2016,04,20,16,45,20.70
2016,04,20,16,46,20.70
2016,04,20,16,47,20.70
2016,04,20,16,48,20.70
2016,04,20,16,49,20.70
2016,04,20,16,50,20.70
2016,04,20,16,51,20.70
2016,04,20,16,52,20.60
2016,04,20,16,53,20.60
2016,04,20,16,54,20.60
2016,04,20,16,55,20.60
2016,04,20,16,56,20.50
2016,04,20,16,57,20.50
2016,04,20,16,58,20.60
2016,04,20,16,59,20.50
2016,04,20,17,00,20.50
2016,04,20,17,01,20.40
2016,04,20,17,02,20.40
2016,04,20,17,03,20.40
2016,04,20,17,04,20.40
2016,04,20,17,05,20.50
2016,04,20,17,06,20.50
2016,04,20,17,07,20.50
2016,04,20,17,08,20.50
2016,04,20,17,09,20.50
2016,04,20,17,10,20.40
2016,04,20,17,11,20.40
2016,04,20,17,12,20.30
2016,04,20,17,13,20.30
2016,04,20,17,14,20.30
2016,04,20,17,15,20.30
2016,04,20,17,16,20.20
2016,04,20,17,17,20.20
2016,04,20,17,18,20.20
2016,04,20,17,19,20.20